Location: Unspecified
(0.0000°N, 0.0000°E)
Time: 14:03:13
(UTC+00:00)

X-37B - Pass Details

Date: 25 November 2021
Orbit: 329 x 342 km, 45.0° (Epoch: 06 December)

Event Time Altitude Azimuth Distance (km) Brightness Sun altitude
Rises 19:20:45 0° 207° (SSW) 2,123 5.1 -21.8°
Reaches altitude 10° 19:22:55 10° 194° (SSW) 1,283 3.7 -22.3°
Enters shadow 19:23:41 15° 185° (S) 1,020 3.0 -22.5°
